Weather History for Howell, MI

Change the Weather History Date:

Thursday, May 17, 2012

  Actual Average Record
Temperature  
Mean Temperature 52 °F -  
Max Temperature 66 °F 65 °F 82 °F (1998)
Min Temperature 38 °F 46 °F 35 °F (2002)
Degree Days  
Heating Degree Days 13    
Growing Degree Days 2 (Base 50)    
Moisture  
Dew Point 37 °F    
Average Humidity 56    
Maximum Humidity 93    
Minimum Humidity 31    
Precipitation  
Precipitation 0.00 in - - ()
Sea Level Pressure  
Sea Level Pressure 30.17 in    
Wind  
Wind Speed 1 mph (East)    
Max Wind Speed 9 mph    
Max Gust Speed -    
Visibility 10 miles    
Events      
Averages and records for this station are not official NWS values.
T = Trace of Precipitation, MM = Missing Value Source: NWS Daily Summary

Daily Weather History Graph

Daily Weather History Graph

Search for Another Location

Airport:

Trip Planner

Search our weather history database for the weather conditions in past years. The results will help you decide how hot, cold, wet, or windy it might be!

Date:

Astronomy

May. 17, 2012 Rise Set
Actual Time 6:11 AM EDT 8:54 PM EDT
Civil Twilight 5:38 AM EDT 9:26 PM EDT
Nautical Twilight 4:57 AM EDT 10:07 PM EDT
Astronomical Twilight 4:10 AM EDT 10:55 PM EDT
Moon 4:12 AM EDT 6:02 PM EDT
Length of Visible Light 15h 48m
Length of Day
14h 42m
Waning Crescent, 10% of the Moon is Illuminated
May 17
Waning Crescent
May 20
New
May 28
First Quarter
Jun 4
Full
Jun 11
Last Quarter

Hourly Weather History & Observations

Time (EDT) Temp. Windchill Dew Point Humidity Pressure Visibility Wind Dir Wind Speed Gust Speed Precip Events Conditions
12:14 AM 49.5 °F - 32.9 °F 53% 30.15 in 10.0 mi Calm Calm - N/A   Clear
12:34 AM 49.1 °F - 33.1 °F 54% 30.15 in 10.0 mi Calm Calm - N/A   Clear
12:54 AM 46.6 °F - 34.5 °F 63% 30.15 in 10.0 mi Calm Calm - N/A   Clear
1:14 AM 47.3 °F - 32.7 °F 57% 30.15 in 10.0 mi Calm Calm - N/A   Clear
1:34 AM 45.5 °F - 33.1 °F 62% 30.15 in 10.0 mi Calm Calm - N/A   Clear
1:55 AM 45.7 °F - 32.5 °F 60% 30.15 in 10.0 mi Calm Calm - N/A   Clear
2:14 AM 44.6 °F - 32.5 °F 63% 30.15 in 10.0 mi Calm Calm - N/A   Clear
2:34 AM 43.0 °F - 33.4 °F 69% 30.15 in 10.0 mi Calm Calm - N/A   Clear
3:14 AM 41.7 °F 39.8 °F 36.7 °F 82% 30.14 in 10.0 mi SE 3.5 mph - N/A   Clear
3:34 AM 40.8 °F - 35.8 °F 82% 30.14 in 10.0 mi Calm Calm - N/A   Clear
3:54 AM 39.6 °F - 35.6 °F 86% 30.15 in 10.0 mi Calm Calm - N/A   Clear
4:14 AM 41.4 °F - 37.9 °F 88% 30.15 in 10.0 mi Calm Calm - N/A   Clear
4:35 AM 40.5 °F - 37.2 °F 88% 30.15 in 10.0 mi Calm Calm - N/A   Clear
4:54 AM 41.0 °F - 37.8 °F 88% 30.16 in 10.0 mi Calm Calm - N/A   Clear
5:14 AM 41.2 °F - 38.3 °F 89% 30.16 in 10.0 mi Calm Calm - N/A   Clear
5:35 AM 40.6 °F - 37.9 °F 90% 30.17 in 10.0 mi Calm Calm - N/A   Clear
5:54 AM 39.4 °F - 37.2 °F 92% 30.17 in 10.0 mi Calm Calm - N/A   Clear
6:14 AM 39.0 °F - 37.0 °F 93% 30.17 in 10.0 mi Calm Calm - N/A   Clear
6:34 AM 38.8 °F - 37.0 °F 93% 30.18 in 10.0 mi Calm Calm - N/A   Clear
6:54 AM 40.6 °F - 38.7 °F 93% 30.19 in 10.0 mi Calm Calm - N/A   Clear
7:14 AM 42.1 °F - 39.6 °F 91% 30.20 in 10.0 mi Calm Calm - N/A   Clear
7:34 AM 42.8 °F - 40.6 °F 92% 30.21 in 10.0 mi Calm Calm - N/A   Clear
7:54 AM 44.6 °F - 41.5 °F 89% 30.22 in 10.0 mi Calm Calm - N/A   Clear
8:14 AM 45.5 °F - 40.6 °F 83% 30.22 in 10.0 mi Calm Calm - N/A   Clear
8:34 AM 47.5 °F - 41.5 °F 80% 30.23 in 10.0 mi Calm Calm - N/A   Clear
8:54 AM 50.0 °F - 42.3 °F 75% 30.23 in 10.0 mi Calm Calm - N/A   Clear
9:15 AM 52.3 °F - 41.0 °F 65% 30.23 in 10.0 mi South 3.5 mph - N/A   Clear
9:34 AM 54.1 °F - 41.5 °F 62% 30.22 in 10.0 mi Calm Calm - N/A   Clear
9:54 AM 55.4 °F - 39.2 °F 54% 30.22 in 10.0 mi Calm Calm - N/A   Clear
10:14 AM 56.3 °F - 35.1 °F 45% 30.22 in 10.0 mi Calm Calm - N/A   Clear
10:34 AM 57.2 °F - 33.1 °F 40% 30.22 in 10.0 mi NE 4.6 mph - N/A   Clear
10:54 AM 58.5 °F - 34.0 °F 40% 30.22 in 10.0 mi Calm Calm - N/A   Clear
11:14 AM 58.6 °F - 32.2 °F 37% 30.22 in 10.0 mi NNE 4.6 mph - N/A   Clear
11:34 AM 59.0 °F - 32.5 °F 37% 30.22 in 10.0 mi Calm Calm - N/A   Clear
11:54 AM 59.5 °F - 32.2 °F 36% 30.22 in 10.0 mi NNW 3.5 mph - N/A   Clear
12:14 PM 61.0 °F - 33.3 °F 35% 30.21 in 10.0 mi WNW 4.6 mph - N/A   Clear
12:34 PM 60.6 °F - 32.4 °F 35% 30.21 in 10.0 mi North 4.6 mph - N/A   Clear
12:54 PM 61.9 °F - 32.2 °F 33% 30.21 in 10.0 mi NNW 4.6 mph - N/A   Clear
1:14 PM 62.4 °F - 33.6 °F 34% 30.20 in 10.0 mi ENE 8.1 mph - N/A   Clear
1:34 PM 62.4 °F - 32.2 °F 32% 30.20 in 10.0 mi Calm Calm - N/A   Clear
1:55 PM 64.2 °F - 33.6 °F 32% 30.20 in 10.0 mi NNW 9.2 mph - N/A   Clear
2:14 PM 63.9 °F - 32.5 °F 31% 30.19 in 10.0 mi NNW 6.9 mph - N/A   Clear
2:34 PM 63.1 °F - 32.0 °F 31% 30.19 in 10.0 mi Calm Calm - N/A   Clear
2:54 PM 63.9 °F - 34.0 °F 33% 30.18 in 10.0 mi Calm Calm - N/A   Clear
3:14 PM 64.9 °F - 33.6 °F 31% 30.18 in 10.0 mi NW 4.6 mph - N/A   Clear
3:34 PM 64.6 °F - 34.3 °F 32% 30.17 in 10.0 mi ESE 5.8 mph - N/A   Clear
3:54 PM 65.1 °F - 34.0 °F 31% 30.17 in 10.0 mi East 3.5 mph - N/A   Clear
4:14 PM 64.9 °F - 34.3 °F 32% 30.16 in 10.0 mi ENE 5.8 mph - N/A   Clear
4:34 PM 66.0 °F - 34.7 °F 31% 30.16 in 10.0 mi Calm Calm - N/A   Clear
4:54 PM 64.8 °F - 33.4 °F 31% 30.16 in 10.0 mi North 3.5 mph - N/A   Clear
5:14 PM 65.5 °F - 34.0 °F 31% 30.15 in 10.0 mi NNW 3.5 mph - N/A   Clear
5:35 PM 65.1 °F - 33.6 °F 31% 30.15 in 10.0 mi South 3.5 mph - N/A   Clear
5:54 PM 65.3 °F - 34.5 °F 32% 30.14 in 10.0 mi ESE 3.5 mph - N/A   Clear
6:14 PM 65.5 °F - 34.7 °F 32% 30.14 in 10.0 mi ENE 5.8 mph - N/A   Clear
6:35 PM 65.3 °F - 35.1 °F 33% 30.13 in 10.0 mi Calm Calm - N/A   Clear
6:54 PM 64.0 °F - 35.2 °F 34% 30.13 in 10.0 mi SE 4.6 mph - N/A   Clear
7:34 PM 64.0 °F - 34.9 °F 34% 30.12 in 10.0 mi East 3.5 mph - N/A   Clear
7:54 PM 63.5 °F - 36.7 °F 37% 30.12 in 10.0 mi Calm Calm - N/A   Clear
8:14 PM 63.3 °F - 37.2 °F 38% 30.12 in 10.0 mi Calm Calm - N/A   Clear
8:34 PM 61.0 °F - 39.9 °F 46% 30.12 in 10.0 mi Calm Calm - N/A   Clear
8:54 PM 59.5 °F - 41.0 °F 50% 30.13 in 10.0 mi Calm Calm - N/A   Clear
9:15 PM 58.1 °F - 40.5 °F 52% 30.12 in 10.0 mi Calm Calm - N/A   Clear
9:34 PM 55.8 °F - 41.9 °F 60% 30.13 in 10.0 mi SE 5.8 mph - N/A   Clear
9:54 PM 55.6 °F - 43.0 °F 63% 30.14 in 10.0 mi SE 6.9 mph - N/A   Clear
10:15 PM 54.3 °F - 43.2 °F 66% 30.14 in 10.0 mi SE 5.8 mph - N/A   Clear
10:34 PM 54.0 °F - 43.3 °F 67% 30.15 in 10.0 mi SE 5.8 mph - N/A   Clear
10:54 PM 53.6 °F - 42.8 °F 67% 30.16 in 10.0 mi SE 5.8 mph - N/A   Clear
11:14 PM 52.0 °F - 43.0 °F 71% 30.17 in 10.0 mi SE 5.8 mph - N/A   Clear
11:34 PM 51.8 °F - 42.8 °F 71% 30.16 in 10.0 mi SE 5.8 mph - N/A   Clear
11:54 PM 50.9 °F - 42.1 °F 72% 30.17 in 10.0 mi Calm Calm - N/A   Clear